Regional Weather Roundup
Issued by NWS Cleveland, OH

Home | Current Version | Previous Version | Graphics & Text | Print | Product List | Glossary On
Versions: 1 2 3 4 5 6 7 8 9 10 11 12 13 14 15 16 17 18 19 20 21 22 23 24 25 26 27 28 29 30 31 32 33 34 35 36 37 38 39 40 41 42 43 44 45 46 47 48 49 50
141
ASUS41 KCLE 260700
RWRCLE
OHIO REGIONAL WEATHER ROUNDUP
NATIONAL WEATHER SERVICE WILMINGTON, OH
300 AM EDT MON JUN 26 2017

NOTE: "FAIR" INDICATES FEW OR NO CLOUDS BELOW 12,000 FEET WITH NO
SIGNIFICANT WEATHER AND/OR OBSTRUCTIONS TO VISIBILITY.

OHZ001>008-015>018-024>027-034-035-043-044-260800-
   NORTHWEST OHIO

CITY           SKY/WX    TMP DP  RH WIND       PRES   REMARKS
DEFIANCE       CLOUDY    59  49  69 CALM      30.06F
FINDLAY        FAIR      59  46  62 SW8       30.05F
TOLEDO EXPRESS CLOUDY    58  51  78 W6        30.04F
TOLEDO EXEC    FAIR      58  51  78 SW3       30.05F
LIMA           FAIR      58  49  72 W8        30.08F
$$

OHZ009>014-019>023-028>033-038-089-260800-
   NORTHEAST OHIO

CITY           SKY/WX    TMP DP  RH WIND       PRES   REMARKS
CLE-HOPKINS    FAIR      58  48  69 SW6       30.06F
CLE-LAKEFRONT  LGT RAIN  60  48  64 SW9       30.03F
CUY CO. ARPT   NOT AVBL
LORAIN-ELYRIA  MOCLDY    56  46  69 SW6       30.05F
ASHTABULA      MOCLDY    58  51  78 CALM      30.04F
AKRON-CANTON   FAIR      58  46  64 SW5       30.07S
WOOSTER        NOT AVBL
MANSFIELD      FAIR      54  46  74 SW5       30.07F
YOUNGSTOWN     FAIR      53  47  79 S5        30.05F
$$

OHZ042-051>053-060>062-070>072-077>081-260800-
  SOUTHWEST OHIO

CITY           SKY/WX    TMP DP  RH WIND       PRES   REMARKS
CINC-COVINGTON FAIR      58  51  78 W8        30.13F
CINC-LUNKEN    FAIR      57  55  93 CALM      30.13F
HAMILTON       MOCLDY    59  55  87 W3        30.14R
DAYTON         NOT AVBL
WRIGHT-PAT AFB NOT AVBL
DAYTON GENERAL MOCLDY    59  53  80 SW3       30.11S
WILMINGTON     CLOUDY    56  54  93 CALM      30.12S
$$

OHZ036-037-039>041-045>050-054>059-063>069-073>076-082>088-260800-
  CENTRAL AND SOUTHEAST OHIO

CITY           SKY/WX    TMP DP  RH WIND       PRES   REMARKS
COLUMBUS       FAIR      60  50  69 CALM      30.09F
OSU AIRPORT    FAIR      57  50  77 SW5       30.09F
BOLTON FIELD   NOT AVBL
RICKENBACK AFB NOT AVBL
NEWARK         FAIR      52  49  89 CALM      30.09F
MARION         FAIR      56  46  69 SW6       30.08F
LANCASTER      FAIR      55  51  86 CALM      30.10F
ZANESVILLE     FAIR      53  50  89 CALM      30.10S
NEW PHILLY     FAIR      52  50  93 SE5       30.08F
$$




USA.gov is the U.S. government's official web portal to all federal, state and local government web resources and services.